[[{"header":{"parameterUnit":"m.s-1","parameterCategory":1,"la1":30.2992,"la2":30.254,"lo1":-89.0895,"lo2":-89.0443,"dy":0.0025,"dx":0.0025,"nx":19,"ny":19,"refTime":"2026-04-20T03:00:00:Z","depth":0,"parameterNumber":2,"parameterNumberName":"U-component_of_WINDS"},"data":[0,0,0,-3.1271,-3.1274,-3.1391,-3.1391,-3.1579,-3.1581,0,0,0,0,0,0,0,0,0,0,0,-3.1262,-3.1264,-3.1271,-3.1275,-3.1391,-3.1391,-3.1579,-3.1581,0,0,0,0,0,0,0,0,0,0,0,-3.1261,-3.1263,-3.1266,-3.1275,-3.1391,-3.1391,-3.1578,-3.1476,0,0,0,0,0,0,0,0,0,0,-3.1356,-3.1372,-3.1263,-3.1266,-3.1276,-3.1391,-3.1391,-3.1471,-3.1483,-3.1543,0,-3.1604,0,-3.1596,-3.1596,-3.1597,0,0,0,-3.1256,-3.1362,-3.1371,-3.1266,-3.1277,-3.1391,-3.1333,-3.1477,-3.149,-3.1559,-3.1607,-3.1613,-3.1599,-3.1598,-3.1599,-3.2012,-3.2015,0,0,-3.125,-3.1296,-3.1362,-3.1381,-3.1367,-3.133,-3.1337,-3.1484,-3.1539,-3.1607,-3.1616,-3.1602,-3.1599,-3.1601,-3.201,-3.2013,0,0,0,-3.1244,-3.1292,-3.1296,-3.1375,-3.1393,-3.1334,-3.1342,-3.1532,-3.153,-3.1618,-3.1604,-3.16,-3.1603,-3.2007,-3.2011,-3.2197,0,0,0,-3.1239,-3.1288,-3.1295,-3.1324,-3.1391,-3.1464,-3.1388,-3.152,-3.1535,-3.1604,-3.16,-3.1605,-3.2003,-3.2009,-3.2185,-3.2278,0,0,0,-3.1246,-3.1289,-3.1314,-3.1326,-3.1378,-3.1461,-3.1466,-3.1522,-3.1528,-3.1597,-3.1606,-3.2001,-3.2008,-3.2174,-3.226,-3.2403,0,0,0,-3.1266,-3.1477,-3.1318,-3.1548,-3.1378,-3.1574,-3.1465,-3.1608,-3.169,-3.1602,-3.2004,-3.2011,-3.2171,-3.225,-3.2392,-3.2533,-3.2595,0,0,-3.1558,-3.1514,-3.1645,-3.1506,-3.1744,-3.1553,-3.1816,-3.1846,-3.181,-3.1947,-3.1956,-3.2189,-3.2259,-3.24,-3.2922,-3.2973,0,0,0,-3.1753,-3.1849,-3.1901,-3.1982,-3.201,-3.2042,-3.2026,-3.2037,-3.2151,-3.189,-3.2275,-3.2315,-3.2396,-3.2462,-3.2505,-3.2572,-3.2042,-3.2041,-3.204,-3.2236,-3.2178,-3.2392,-3.2348,-3.2427,-3.2408,-3.2467,-3.2478,-3.2395,-3.2487,-3.2529,-3.2853,-3.2932,-3.2963,-3.3034,-3.2596,-3.2596,-3.2597,-3.2598,-3.2661,-3.2789,-3.2673,-3.2841,-3.2777,-3.2916,-3.2906,-3.2843,-3.2963,-3.2817,-3.2885,-3.2735,-3.302,-3.3079,-3.2611,-3.2609,-3.2607,-3.2606,-3.2605,-3.2975,-3.3026,-3.3034,-3.3144,-3.3234,-3.3179,-3.3301,-3.3237,-3.3178,-3.3246,-3.3284,-3.3281,-3.3273,-3.3268,-3.3269,-3.327,-3.3271,-3.3272,-3.3272,-3.3298,-3.3301,-3.3412,-3.3458,-3.3501,-3.3549,-3.353,-3.357,-3.3598,-3.3543,-3.3543,-3.3454,-3.3057,-3.2962,-3.329,-3.3287,-3.3284,-3.3283,-3.3282,-3.3758,-3.3643,-3.3815,-3.3858,-3.3906,-3.4001,-3.3916,-3.4003,-3.4026,-3.4088,-3.3982,-3.3698,-3.3649,-3.3615,-3.3536,-3.3992,-3.3992,-3.3992,-3.3992,-3.4025,-3.3992,-3.4153,-3.4226,-3.4289,-3.4231,-3.4426,-3.4412,-3.438,-3.4391,-3.4314,-3.4202,-3.4169,-3.4139,-3.4094,-3.4019,-3.4588,-3.4589,-3.459,-3.4307,-3.4277,-3.4457,-3.4424,-3.4456,-3.4486,-3.4668,-3.4755,-3.4694,-3.4612,-3.4399,-3.4374,-3.4191,-3.4134,-3.4053,-3.3983,-3.3844,0,0]},{"header":{"parameterUnit":"m.s-1","parameterCategory":1,"la1":30.2992,"la2":30.254,"lo1":-89.0895,"lo2":-89.0443,"dy":0.0025,"dx":0.0025,"nx":19,"ny":19,"refTime":"2026-04-20T03:00:00:Z","depth":0,"parameterNumber":3,"parameterNumberName":"V-component_of_WINDS"},"data":[0,0,0,-5.1059,-5.1063,-5.12,-5.1201,-5.1396,-5.1398,0,0,0,0,0,0,0,0,0,0,0,-5.1033,-5.1035,-5.1059,-5.1063,-5.12,-5.1201,-5.1395,-5.1398,0,0,0,0,0,0,0,0,0,0,0,-5.1032,-5.1035,-5.1037,-5.1063,-5.12,-5.1201,-5.1395,-5.1283,0,0,0,0,0,0,0,0,0,0,-5.1146,-5.1138,-5.1034,-5.1037,-5.1064,-5.12,-5.1201,-5.1278,-5.129,-5.1342,0,-5.1396,0,-5.14,-5.1412,-5.1413,0,0,0,-5.1051,-5.1128,-5.1151,-5.1038,-5.1066,-5.12,-5.1135,-5.1285,-5.1299,-5.1359,-5.1398,-5.1405,-5.1404,-5.1414,-5.1415,-5.1762,-5.1764,0,0,-5.1043,-5.1066,-5.1142,-5.1162,-5.1145,-5.1131,-5.1139,-5.1293,-5.1336,-5.1399,-5.1409,-5.1407,-5.1415,-5.1417,-5.176,-5.1763,0,0,0,-5.1029,-5.1061,-5.108,-5.1154,-5.1178,-5.1135,-5.1145,-5.1329,-5.1333,-5.1411,-5.1409,-5.1416,-5.1419,-5.1758,-5.1761,-5.1892,0,0,0,-5.1024,-5.1053,-5.1078,-5.1093,-5.1176,-5.1256,-5.1178,-5.1323,-5.1339,-5.1408,-5.1416,-5.1421,-5.1755,-5.1759,-5.1883,-5.195,0,0,0,-5.1019,-5.1052,-5.1077,-5.1094,-5.1154,-5.1253,-5.1266,-5.1326,-5.1339,-5.1413,-5.1422,-5.1754,-5.1759,-5.1876,-5.1937,-5.2049,0,0,0,-5.1019,-5.1191,-5.108,-5.127,-5.1153,-5.1334,-5.1265,-5.1397,-5.1477,-5.1418,-5.1756,-5.1761,-5.1873,-5.1929,-5.204,-5.2147,-5.2194,0,0,-5.1248,-5.1219,-5.1329,-5.1234,-5.1441,-5.1311,-5.1535,-5.1585,-5.157,-5.1698,-5.1706,-5.1886,-5.1936,-5.2047,-5.2445,-5.2483,0,0,0,-5.1409,-5.1489,-5.1538,-5.1617,-5.166,-5.1702,-5.1716,-5.1734,-5.1842,-5.1642,-5.1955,-5.1985,-5.2048,-5.2098,-5.213,-5.2183,-5.1785,-5.1784,-5.1784,-5.1765,-5.1739,-5.1918,-5.1908,-5.1984,-5.1996,-5.2054,-5.208,-5.2029,-5.2103,-5.2142,-5.2387,-5.2446,-5.247,-5.2525,-5.2195,-5.2195,-5.2196,-5.2196,-5.2098,-5.2206,-5.2135,-5.2284,-5.2254,-5.2377,-5.2394,-5.2354,-5.2462,-5.2356,-5.2411,-5.2298,-5.2512,-5.2559,-5.2206,-5.2204,-5.2203,-5.2202,-5.2201,-5.2329,-5.2376,-5.2396,-5.2505,-5.2592,-5.2573,-5.2681,-5.2648,-5.2618,-5.2672,-5.2708,-5.2706,-5.2699,-5.2691,-5.2692,-5.2693,-5.2694,-5.2694,-5.2695,-5.2561,-5.2579,-5.2676,-5.2737,-5.2781,-5.2836,-5.2848,-5.289,-5.2928,-5.2896,-5.2896,-5.2837,-5.2538,-5.2464,-5.2708,-5.2706,-5.2704,-5.2703,-5.2702,-5.2909,-5.2825,-5.2975,-5.3021,-5.3087,-5.3174,-5.313,-5.3219,-5.3249,-5.3302,-5.3232,-5.3016,-5.2983,-5.2958,-5.2896,-5.3238,-5.3238,-5.3238,-5.3238,-5.3105,-5.3085,-5.323,-5.3305,-5.3373,-5.3349,-5.3516,-5.3526,-5.3522,-5.3538,-5.3483,-5.3398,-5.3374,-5.3355,-5.3321,-5.3263,-5.3691,-5.3691,-5.3692,-5.3317,-5.3303,-5.3453,-5.3451,-5.35,-5.3542,-5.3698,-5.3783,-5.3761,-5.3709,-5.355,-5.3531,-5.3393,-5.335,-5.3296,-5.3244,-5.3136,0,0]}]]